TimeEDT,TemperatureF,Dew PointF,Humidity,Sea Level PressureIn,VisibilityMPH,Wind Direction,Wind SpeedMPH,Gust SpeedMPH,PrecipitationIn,Events,Conditions,WindDirDegrees,DateUTC
12:52 AM,50.0,48.0,93,29.91,10.0,Calm,Calm,-,N/A,,Partly Cloudy,0,2012-10-01 04:52:00
1:52 AM,48.0,46.9,96,29.92,10.0,WSW,3.5,-,N/A,,Partly Cloudy,240,2012-10-01 05:52:00
2:52 AM,46.9,46.0,97,29.92,10.0,SSW,4.6,-,N/A,,Partly Cloudy,210,2012-10-01 06:52:00
3:52 AM,46.9,46.0,97,29.92,10.0,Calm,Calm,-,N/A,,Partly Cloudy,0,2012-10-01 07:52:00
4:52 AM,46.9,46.0,97,29.92,9.0,Calm,Calm,-,N/A,,Partly Cloudy,0,2012-10-01 08:52:00
5:52 AM,52.0,48.0,86,29.92,10.0,North,5.8,-,N/A,,Mostly Cloudy,10,2012-10-01 09:52:00
6:52 AM,46.0,44.1,93,29.94,9.0,Calm,Calm,-,N/A,,Scattered Clouds,0,2012-10-01 10:52:00
7:52 AM,46.0,45.0,96,29.95,9.0,NW,4.6,-,N/A,,Scattered Clouds,320,2012-10-01 11:52:00
8:52 AM,54.0,48.9,83,29.96,10.0,North,4.6,-,N/A,,Scattered Clouds,360,2012-10-01 12:52:00
9:52 AM,60.1,50.0,69,29.97,10.0,North,4.6,-,N/A,,Scattered Clouds,10,2012-10-01 13:52:00
10:52 AM,63.0,50.0,63,29.98,10.0,Variable,4.6,-,N/A,,Scattered Clouds,0,2012-10-01 14:52:00
11:52 AM,66.0,46.0,48,29.98,10.0,SE,3.5,-,N/A,,Scattered Clouds,130,2012-10-01 15:52:00
12:52 PM,66.9,46.0,47,29.96,10.0,Calm,Calm,-,N/A,,Mostly Cloudy,0,2012-10-01 16:52:00
1:52 PM,69.1,46.9,45,29.94,10.0,SSW,4.6,-,N/A,,Mostly Cloudy,200,2012-10-01 17:52:00
2:52 PM,69.1,48.0,47,29.93,10.0,Calm,Calm,-,N/A,,Overcast,0,2012-10-01 18:52:00
3:52 PM,69.1,50.0,51,29.92,10.0,South,6.9,-,N/A,,Overcast,170,2012-10-01 19:52:00
4:52 PM,68.0,46.9,47,29.93,10.0,South,4.6,-,N/A,,Overcast,170,2012-10-01 20:52:00
5:52 PM,64.4,50.0,59,29.96,10.0,SSW,10.4,-,N/A,,Overcast,200,2012-10-01 21:52:00
6:06 PM,62.6,53.6,72,29.97,6.0,South,10.4,-,0.00,Rain,Light Rain,190,2012-10-01 22:06:00
6:52 PM,61.0,54.0,78,29.97,7.0,Calm,Calm,-,0.00,Rain,Light Rain,0,2012-10-01 22:52:00
7:52 PM,60.1,55.0,83,29.96,10.0,Calm,Calm,-,0.00,Rain,Light Rain,0,2012-10-01 23:52:00
8:52 PM,59.0,57.0,93,29.96,10.0,Calm,Calm,-,0.00,Rain,Light Rain,0,2012-10-02 00:52:00
9:52 PM,60.1,57.0,90,29.94,7.0,East,3.5,-,0.00,,Overcast,90,2012-10-02 01:52:00
10:52 PM,60.8,57.2,88,29.95,10.0,Calm,Calm,-,N/A,Rain,Light Rain,0,2012-10-02 02:52:00
11:52 PM,60.1,57.0,90,29.95,10.0,Calm,Calm,-,0.00,,Overcast,0,2012-10-02 03:52:00